When you browse on this site, cookies collect data to enhance your experience and personalize the content and advertising you see.
Visit our Privacy Policy to learn more. By continuing to use the site, you agree to this use of cookies and data.
  • In Czech Republic
  • List of Countries
  • For 7 days
  • Water Temperature
  • Satellite Maps
  • Weather Map
  • Weather Widgets
  • user-avatar
    Login

    Hourly Weather Maripasoula

    Today, 22 July, Monday

    Time Temperature Precipitation Wind Pressure Humidity
    00:00 +22°C° 0 mm 0 mps 748 mmHg 99%
    01:00 +21°C° 0 mm 0 mps 748 mmHg 99%
    02:00 +21°C° 0 mm 0 mps 747 mmHg 99%
    03:00 +21°C° 0 mm 0 mps 747 mmHg 99%
    04:00 +21°C° 0 mm 0 mps 747 mmHg 99%
    05:00 +21°C° 0 mm 0 mps 747 mmHg 99%
    06:00 +22°C° 0 mm 0 mps 748 mmHg 95%
    07:00 +23°C° 0 mm 0 mps 748 mmHg 90%
    08:00 +26°C° 0 mm 1 mps 748 mmHg 86%
    09:00 +28°C° 0.1 mm 1 mps 748 mmHg 76%
    10:00 +30°C° 0.1 mm 1 mps 748 mmHg 67%
    11:00 +32°C° 0.1 mm 1 mps 748 mmHg 58%
    12:00 +31°C° 0.5 mm 1 mps 747 mmHg 63%
    13:00 +31°C° 0.5 mm 1 mps 747 mmHg 69%
    14:00 +31°C° 0.5 mm 1 mps 746 mmHg 74%
    15:00 +29°C° 1.3 mm 1 mps 746 mmHg 82%
    16:00 +28°C° 1.3 mm 1 mps 746 mmHg 89%
    17:00 +27°C° 1.3 mm 1 mps 746 mmHg 96%
    18:00 +26°C° 0.1 mm 1 mps 746 mmHg 97%
    19:00 +25°C° 0.1 mm 1 mps 747 mmHg 97%
    20:00 +24°C° 0.1 mm 1 mps 747 mmHg 98%
    21:00 +24°C° 0 mm 1 mps 748 mmHg 98%
    22:00 +24°C° 0 mm 1 mps 748 mmHg 98%
    23:00 +23°C° 0 mm 1 mps 748 mmHg 98%

    Tomorrow, 23 July, Tuesday

    Time Temperature Precipitation Wind Pressure Humidity
    00:00 +21°C° 0 mm 0 mps 748 mmHg 98%
    01:00 +21°C° 0 mm 0 mps 748 mmHg 99%
    02:00 +21°C° 0 mm 0 mps 747 mmHg 99%
    03:00 +21°C° 0 mm 0 mps 747 mmHg 99%
    04:00 +20°C° 0 mm 0 mps 747 mmHg 99%
    05:00 +20°C° 0 mm 0 mps 747 mmHg 99%
    06:00 +22°C° 0 mm 0 mps 748 mmHg 95%
    07:00 +23°C° 0 mm 0 mps 748 mmHg 91%
    08:00 +26°C° 0 mm 1 mps 749 mmHg 87%
    09:00 +29°C° 0 mm 1 mps 749 mmHg 75%
    10:00 +31°C° 0 mm 1 mps 748 mmHg 62%
    11:00 +34°C° 0 mm 2 mps 748 mmHg 50%
    12:00 +35°C° 0 mm 2 mps 748 mmHg 48%
    13:00 +35°C° 0 mm 2 mps 747 mmHg 45%
    14:00 +36°C° 0 mm 2 mps 746 mmHg 43%
    15:00 +34°C° 0 mm 2 mps 746 mmHg 51%
    16:00 +31°C° 0 mm 1 mps 746 mmHg 59%
    17:00 +30°C° 0 mm 1 mps 746 mmHg 67%
    18:00 +28°C° 0 mm 1 mps 746 mmHg 73%
    19:00 +27°C° 0 mm 1 mps 747 mmHg 80%
    20:00 +25°C° 0 mm 1 mps 747 mmHg 86%
    21:00 +25°C° 0 mm 1 mps 747 mmHg 88%
    22:00 +24°C° 0 mm 1 mps 748 mmHg 90%
    23:00 +24°C° 0 mm 1 mps 748 mmHg 93%

    Day after tomorrow, 24 July, Wednesday

    Time Temperature Precipitation Wind Pressure Humidity
    00:00 +24°C° 0 mm 1 mps 747 mmHg 94%
    01:00 +21°C° 0 mm 0 mps 747 mmHg 96%
    02:00 +21°C° 0 mm 0 mps 747 mmHg 98%
    03:00 +21°C° 0 mm 0 mps 747 mmHg 98%
    04:00 +20°C° 0 mm 0 mps 747 mmHg 98%
    05:00 +20°C° 0 mm 0 mps 747 mmHg 99%
    06:00 +22°C° 0 mm 0 mps 747 mmHg 90%
    07:00 +26°C° 0 mm 1 mps 748 mmHg 81%
    08:00 +28°C° 0 mm 1 mps 748 mmHg 72%
    09:00 +30°C° 0 mm 1 mps 748 mmHg 64%
    10:00 +32°C° 0 mm 1 mps 748 mmHg 55%
    11:00 +34°C° 0 mm 2 mps 748 mmHg 47%
    12:00 +35°C° 0 mm 2 mps 747 mmHg 46%
    13:00 +35°C° 0 mm 2 mps 746 mmHg 44%
    14:00 +36°C° 0 mm 2 mps 746 mmHg 43%
    15:00 +34°C° 0 mm 2 mps 746 mmHg 51%
    16:00 +32°C° 0 mm 2 mps 746 mmHg 58%
    17:00 +30°C° 0 mm 2 mps 746 mmHg 66%
    18:00 +29°C° 0 mm 2 mps 746 mmHg 72%
    19:00 +27°C° 0 mm 1 mps 747 mmHg 78%
    20:00 +26°C° 0 mm 1 mps 747 mmHg 85%
    21:00 +25°C° 0 mm 1 mps 747 mmHg 88%
    22:00 +24°C° 0 mm 1 mps 748 mmHg 92%
    23:00 +24°C° 0 mm 1 mps 748 mmHg 95%

    25 July, Thursday

    Time Temperature Precipitation Wind Pressure Humidity
    00:00 +21°C° 0 mm 0 mps 747 mmHg 96%
    01:00 +21°C° 0 mm 0 mps 747 mmHg 97%
    02:00 +21°C° 0 mm 0 mps 746 mmHg 98%
    03:00 +21°C° 0 mm 0 mps 746 mmHg 98%
    04:00 +20°C° 0 mm 0 mps 746 mmHg 98%
    05:00 +20°C° 0 mm 0 mps 747 mmHg 98%
    06:00 +22°C° 0 mm 0 mps 747 mmHg 89%
    07:00 +26°C° 0 mm 1 mps 748 mmHg 80%
    08:00 +28°C° 0 mm 1 mps 748 mmHg 71%
    09:00 +29°C° 0 mm 1 mps 748 mmHg 67%
    10:00 +30°C° 0 mm 1 mps 748 mmHg 63%
    11:00 +31°C° 0 mm 1 mps 748 mmHg 59%
    12:00 +31°C° 0.8 mm 1 mps 747 mmHg 68%
    13:00 +30°C° 0.8 mm 1 mps 746 mmHg 76%
    14:00 +30°C° 0.8 mm 1 mps 746 mmHg 85%
    15:00 +29°C° 1 mm 1 mps 746 mmHg 88%
    16:00 +28°C° 1 mm 1 mps 746 mmHg 92%
    17:00 +27°C° 1 mm 1 mps 746 mmHg 95%
    18:00 +24°C° 0 mm 0 mps 746 mmHg 96%
    19:00 +23°C° 0 mm 0 mps 747 mmHg 96%
    20:00 +22°C° 0 mm 0 mps 747 mmHg 97%
    21:00 +22°C° 0 mm 0 mps 747 mmHg 97%
    22:00 +22°C° 0 mm 0 mps 748 mmHg 97%
    23:00 +22°C° 0 mm 0 mps 748 mmHg 97%

    26 July, Friday

    Time Temperature Precipitation Wind Pressure Humidity
    00:00 +21°C° 0 mm 0 mps 748 mmHg 97%
    01:00 +21°C° 0 mm 0 mps 747 mmHg 97%
    02:00 +21°C° 0 mm 0 mps 746 mmHg 98%
    03:00 +21°C° 0 mm 0 mps 747 mmHg 98%
    04:00 +20°C° 0 mm 0 mps 747 mmHg 98%
    05:00 +20°C° 0 mm 0 mps 747 mmHg 98%
    06:00 +22°C° 0 mm 0 mps 747 mmHg 92%
    07:00 +24°C° 0 mm 0 mps 748 mmHg 87%
    08:00 +25°C° 0 mm 0 mps 749 mmHg 81%
    09:00 +29°C° 0.1 mm 1 mps 748 mmHg 71%
    10:00 +31°C° 0.1 mm 1 mps 748 mmHg 60%
    11:00 +34°C° 0.1 mm 1 mps 748 mmHg 49%
    12:00 +34°C° 0.1 mm 1 mps 747 mmHg 48%
    13:00 +34°C° 0.1 mm 1 mps 746 mmHg 48%
    14:00 +34°C° 0.1 mm 1 mps 745 mmHg 47%
    15:00 +33°C° 0.1 mm 1 mps 745 mmHg 56%
    16:00 +32°C° 0.1 mm 1 mps 745 mmHg 65%
    17:00 +30°C° 0.1 mm 1 mps 745 mmHg 74%
    18:00 +27°C° 0.4 mm 0 mps 746 mmHg 80%
    19:00 +25°C° 0.4 mm 0 mps 746 mmHg 86%
    20:00 +23°C° 0.4 mm 0 mps 747 mmHg 92%
    21:00 +23°C° 0.4 mm 0 mps 747 mmHg 94%
    22:00 +22°C° 0.4 mm 0 mps 748 mmHg 96%
    23:00 +22°C° 0.4 mm 0 mps 748 mmHg 98%

    27 July, Saturday

    Time Temperature Precipitation Wind Pressure Humidity
    00:00 +22°C° 0 mm 0 mps 748 mmHg 98%
    01:00 +21°C° 0 mm 0 mps 747 mmHg 99%
    02:00 +21°C° 0 mm 0 mps 747 mmHg 99%
    03:00 +21°C° 0 mm 0 mps 747 mmHg 99%
    04:00 +21°C° 0 mm 0 mps 747 mmHg 99%
    05:00 +21°C° 0 mm 0 mps 747 mmHg 99%
    06:00 +21°C° 0 mm 0 mps 747 mmHg 98%
    07:00 +22°C° 0 mm 0 mps 748 mmHg 96%
    08:00 +23°C° 0 mm 0 mps 748 mmHg 95%
    09:00 +25°C° 0 mm 0 mps 748 mmHg 82%
    10:00 +30°C° 0 mm 1 mps 748 mmHg 69%
    11:00 +32°C° 0 mm 1 mps 748 mmHg 56%
    12:00 +34°C° 0 mm 2 mps 747 mmHg 54%
    13:00 +35°C° 0 mm 2 mps 746 mmHg 51%
    14:00 +35°C° 0 mm 2 mps 746 mmHg 48%
    15:00 +32°C° 0.3 mm 2 mps 745 mmHg 59%
    16:00 +31°C° 0.3 mm 2 mps 745 mmHg 69%
    17:00 +29°C° 0.3 mm 2 mps 745 mmHg 79%
    18:00 +28°C° 0.2 mm 1 mps 746 mmHg 84%
    19:00 +27°C° 0.2 mm 1 mps 747 mmHg 88%
    20:00 +25°C° 0.2 mm 1 mps 747 mmHg 92%
    21:00 +25°C° 0 mm 1 mps 748 mmHg 93%
    22:00 +24°C° 0 mm 1 mps 748 mmHg 95%
    23:00 +24°C° 0 mm 1 mps 749 mmHg 96%
    Show more